GFSNW_925_thetae_021.txt.gz
Theta_e
302 304 303 302 303 302 302 303 302 306 306 311 306 308 308 307 310 310 313 315 318 320 319 320 320 320 322 321 320 323 324 326 327 323 323 322 323 325 328 332 334 330 332 333
302 303 303 302 303 302 302 304 305 304 306 313 313 313 314 316 311 312 312 312 314 316 317 318 318 318 319 320 321 324 321 324 327 327 325 322 323 324 325 326 328 338 331 331
303 303 303 303 303 302 303 304 308 310 308 308 311 314 314 316 318 319 312 314 315 315 315 317 318 319 320 321 320 331 324 326 327 328 328 326 325 323 324 324 329 328 330 330
304 303 303 303 302 302 303 305 309 310 315 314 314 312 312 313 315 318 318 320 316 317 318 319 319 321 320 321 323 329 332 335 331 331 328 326 325 323 323 325 327 329 328 331
304 303 302 303 303 303 303 306 308 306 309 310 312 311 312 314 317 317 319 321 322 323 323 325 322 323 324 324 327 327 326 331 329 332 330 327 326 325 324 324 324 327 327 332
304 303 303 302 303 303 302 302 303 304 305 308 310 311 311 313 312 314 316 316 316 319 323 325 324 324 324 325 330 336 335 328 328 328 329 325 326 326 326 326 326 327 330 331
304 304 302 302 303 303 302 301 301 304 304 306 309 311 311 312 312 312 312 312 315 317 317 318 323 322 324 327 330 333 337 334 328 332 326 326 326 326 326 326 326 327 328 332
304 304 302 303 302 303 303 302 302 303 304 304 306 309 311 312 312 312 312 313 313 314 316 325 331 331 331 330 333 334 337 335 338 336 332 328 332 336 327 325 329 330 332 333
303 303 303 303 302 302 303 303 301 302 302 301 302 308 309 311 311 312 313 313 313 320 327 329 333 334 333 336 339 334 335 336 339 336 333 332 333 336 336 337 332 337 338 340
303 303 304 303 302 302 303 303 302 302 304 303 304 305 308 309 311 312 311 314 315 323 332 333 331 332 333 339 338 342 343 347 342 341 336 334 338 337 336 338 337 337 337 338
303 303 302 301 301 302 302 303 303 303 304 303 303 303 304 308 310 310 311 313 319 325 334 337 333 335 337 339 339 339 343 346 348 344 342 338 335 336 341 339 337 337 337 338
302 302 302 301 301 302 302 303 303 302 303 302 302 302 303 305 306 307 310 314 312 320 326 329 331 339 338 343 342 338 342 342 346 343 341 335 331 335 333 333 336 337 343 343
301 301 302 302 302 301 302 303 302 301 302 303 303 303 302 303 304 305 308 312 314 319 319 323 327 337 337 345 344 341 340 337 343 342 337 332 329 328 327 327 328 328 330 333
301 301 302 301 301 301 302 303 303 302 302 303 304 306 306 307 307 306 305 309 311 311 315 322 327 333 327 339 337 342 332 339 339 339 335 332 328 329 328 327 325 325 326 328
300 300 301 301 302 302 302 302 302 302 302 303 303 302 307 307 307 307 307 308 310 311 314 320 326 326 332 331 333 329 326 334 340 340 335 335 330 328 326 326 325 325 325 325
300 300 301 302 302 302 301 302 302 302 302 302 309 308 309 309 308 308 309 309 310 310 318 321 316 319 331 334 333 323 322 325 325 334 331 329 325 323 320 321 320 321 321 321
300 301 302 300 302 302 302 302 302 301 302 305 310 311 311 310 309 309 309 310 311 312 316 321 317 322 327 327 328 323 322 325 325 325 324 323 321 320 319 319 318 319 319 318
300 300 300 301 301 301 303 303 301 302 302 303 309 312 315 310 313 315 310 312 311 312 313 320 323 323 324 325 322 321 321 322 322 322 321 322 321 321 320 319 320 320 319 319
300 300 301 301 301 302 303 305 306 302 302 306 309 314 318 312 310 312 312 312 314 311 325 323 324 322 324 322 321 320 320 321 322 320 320 320 321 321 321 320 320 320 320 320
302 302 303 307 305 305 305 305 305 303 304 305 308 309 314 311 315 315 315 314 315 327 324 322 324 323 319 319 319 319 320 320 318 321 322 322 323 323 322 322 322 322 322 322
304 305 307 305 305 304 306 308 310 310 311 309 311 311 314 312 316 317 315 316 315 322 324 325 325 320 320 320 320 320 322 321 321 322 322 323 323 323 323 323 323 324 324 324
303 303 303 303 306 307 308 310 310 312 314 311 314 315 313 313 312 316 316 317 319 327 324 326 325 322 320 320 321 320 320 321 322 321 322 322 322 323 323 324 324 323 322 322
304 304 305 306 307 312 313 316 316 316 313 312 314 314 316 315 312 317 318 320 324 323 324 323 323 321 320 320 319 318 318 318 319 319 320 321 321 321 322 324 323 323 322 320
306 308 310 311 313 313 314 314 314 313 313 314 312 314 316 315 316 318 319 322 323 324 323 322 321 320 318 317 317 318 319 318 319 318 319 319 320 321 321 321 322 322 323 323
308 307 308 308 308 311 312 313 314 313 313 312 313 314 314 316 318 321 321 322 322 323 323 321 319 318 317 318 318 318 318 319 318 318 318 318 318 319 320 320 321 323 323 323
307 308 310 311 312 313 313 313 313 311 311 313 314 316 316 317 320 321 322 321 323 322 320 319 318 318 318 318 318 318 318 318 318 318 318 318 318 319 318 319 320 321 322 322
310 312 310 310 310 311 311 310 311 309 314 317 317 319 318 317 320 321 321 320 320 318 319 318 318 319 318 318 318 318 317 318 317 317 317 317 317 317 318 320 319 319 320 320

GFSNW_925_thetae_024.txt.gz
Theta_e
304 303 302 302 303 303 304 304 307 309 309 313 312 312 313 309 310 312 313 316 319 320 321 323 324 324 324 324 327 327 328 329 329 326 325 325 326 329 333 337 341 337 338 338
304 303 303 303 303 303 304 307 306 306 307 310 311 312 312 313 313 312 312 312 315 317 319 322 323 323 323 322 324 329 329 331 332 329 324 324 325 327 329 333 334 342 339 338
304 304 302 302 303 303 303 306 306 309 313 312 313 314 316 316 314 315 314 314 314 315 317 320 322 321 321 320 321 334 327 331 332 332 328 325 324 324 327 329 336 335 336 338
304 303 302 302 303 303 303 306 307 311 310 314 316 317 317 316 316 316 318 319 315 315 316 318 318 320 321 323 327 324 324 330 331 330 329 328 328 325 324 325 327 331 331 334
303 303 303 303 303 303 304 306 307 308 308 308 309 308 311 315 315 316 319 320 319 316 317 318 319 319 320 322 323 325 329 334 335 334 330 329 329 328 327 325 325 326 328 330
304 304 304 303 303 303 304 304 304 305 306 305 306 308 309 311 314 315 316 319 319 323 322 323 324 325 325 322 324 327 328 330 336 336 334 333 333 331 330 329 327 325 327 328
304 304 304 303 302 302 303 304 303 305 307 307 306 307 309 310 310 311 313 315 315 319 318 319 322 325 327 327 328 329 334 337 334 337 335 337 333 332 331 330 329 328 326 327
305 304 304 304 303 303 303 303 303 304 307 306 305 305 306 307 309 310 312 311 312 315 317 322 327 330 330 329 328 328 330 338 337 339 338 334 332 331 332 332 332 330 328 328
304 305 304 304 304 303 303 303 303 303 306 305 305 306 308 310 311 311 310 312 314 316 319 325 331 329 329 328 327 328 331 335 341 341 339 340 343 341 339 340 337 331 330 329
304 304 304 304 304 303 302 303 304 302 305 305 306 307 307 308 309 312 313 313 315 320 329 331 332 330 327 328 332 339 340 341 341 339 340 338 341 338 338 339 337 343 332 331
302 302 303 304 302 302 302 303 303 303 304 304 306 306 306 307 307 312 313 312 319 323 331 332 331 333 331 331 334 340 340 340 338 339 342 343 337 339 341 345 345 342 342 341
302 302 303 303 302 301 302 303 302 304 304 304 304 304 304 305 305 306 308 311 315 315 324 328 330 337 338 336 339 339 339 336 336 342 342 338 335 339 337 338 342 347 343 342
302 302 303 302 302 302 302 303 303 303 303 304 307 307 305 305 304 305 309 311 310 316 315 319 325 335 337 341 340 339 343 340 341 342 338 337 334 331 332 334 335 338 343 344
302 301 302 302 302 302 302 303 303 303 304 306 306 305 307 307 307 304 305 309 313 312 314 320 323 332 331 342 341 344 337 341 342 340 337 332 333 333 330 330 331 332 336 340
301 300 301 301 302 302 302 303 303 303 304 306 306 305 309 310 305 309 307 307 309 313 315 321 323 325 330 335 335 331 326 333 341 339 335 336 334 330 328 330 330 330 331 333
301 300 301 301 302 302 304 305 303 303 303 305 307 309 311 313 311 310 310 311 310 313 316 320 321 319 326 338 333 323 325 329 330 338 334 331 328 323 322 323 323 324 324 325
300 301 301 300 301 303 304 305 303 302 303 303 309 313 314 312 313 312 313 312 312 313 317 321 322 325 327 327 327 323 326 329 332 332 329 326 322 323 322 320 320 320 321 321
300 300 300 301 301 302 303 302 300 302 302 304 309 311 317 313 314 314 313 314 314 314 316 320 324 325 323 326 322 323 324 324 322 323 323 323 322 321 322 321 320 321 322 322
302 302 301 303 304 304 304 305 306 302 302 303 307 315 318 314 314 312 312 313 316 315 324 324 323 324 325 324 323 323 323 323 322 321 321 322 323 323 323 322 321 322 322 322
304 305 307 309 308 305 306 306 306 305 305 305 308 312 317 315 316 314 316 315 318 325 324 323 321 324 322 322 322 323 321 321 321 321 321 320 322 324 323 323 323 323 323 323
306 307 308 308 307 308 310 311 312 311 309 306 310 315 317 314 319 319 317 318 319 324 325 326 321 321 323 320 321 322 323 322 323 323 322 324 323 323 323 324 324 324 325 326
304 304 304 306 310 311 311 313 313 315 316 314 317 317 316 316 315 319 319 320 322 324 325 325 324 321 321 322 321 321 322 323 323 324 324 324 324 324 325 325 325 324 324 325
307 308 309 311 313 316 316 316 316 317 316 315 317 318 318 318 317 320 321 322 324 324 323 323 324 321 321 321 320 321 321 321 322 323 323 323 323 324 325 326 324 324 325 325
309 309 310 310 313 315 316 317 317 316 316 317 317 320 318 318 319 320 322 324 323 323 321 325 323 320 319 319 320 321 322 321 320 320 320 320 321 322 322 324 325 325 325 325
309 307 309 313 312 313 315 315 316 316 315 316 317 317 317 319 320 321 323 323 323 323 324 322 320 319 321 322 321 321 321 321 320 320 320 320 319 319 320 320 322 324 324 324
312 312 314 314 315 315 315 315 316 315 316 317 318 318 318 322 321 322 323 322 324 323 321 320 320 321 322 323 322 321 321 321 321 320 319 319 319 320 320 319 319 319 320 321
313 314 313 313 314 315 315 315 315 315 318 320 319 321 321 320 320 322 319 322 322 323 322 321 322 323 323 322 322 322 321 322 321 321 320 321 320 319 318 320 320 319 319 319

GFSNW_925_thetae_030.txt.gz
Theta_e
304 304 305 305 304 303 305 308 311 312 313 314 315 316 316 315 318 319 319 320 319 319 320 325 328 329 329 330 330 329 328 329 333 330 331 330 328 329 328 331 341 336 338 341
304 304 304 304 304 303 305 309 310 309 310 313 312 313 313 314 316 317 319 320 320 320 319 323 323 327 329 329 329 330 331 330 333 332 330 331 330 328 326 326 328 339 339 339
304 304 304 303 303 303 304 308 310 310 312 313 312 314 317 316 315 315 318 320 320 320 320 320 323 324 325 327 329 343 332 330 333 332 333 331 333 330 329 327 329 331 336 338
305 305 304 303 303 303 304 307 309 310 312 312 314 315 315 316 317 317 318 319 320 320 323 318 319 320 322 325 335 328 329 332 331 330 328 331 331 331 329 330 331 332 332 339
305 305 305 304 303 303 304 306 308 309 310 309 309 309 311 312 313 313 314 318 318 320 323 325 323 323 325 325 327 327 329 334 330 331 329 329 331 331 331 331 330 330 331 332
304 304 305 304 304 303 305 305 306 309 309 308 309 308 309 312 312 313 313 315 316 317 316 317 317 318 320 323 327 332 332 330 336 335 331 331 332 333 332 330 331 330 331 333
305 305 305 304 304 304 305 305 306 307 307 309 309 308 308 310 311 312 313 312 312 312 311 314 319 321 322 323 325 324 335 335 333 335 336 338 332 331 331 333 330 328 329 331
304 305 305 305 305 305 305 305 306 305 308 308 307 309 308 310 311 312 310 311 310 310 312 319 323 323 324 324 324 325 329 334 332 336 334 332 333 332 332 333 336 333 332 333
304 305 305 306 305 304 305 304 305 304 306 306 306 308 308 307 311 312 312 312 313 312 312 318 326 329 324 326 325 325 326 335 335 335 334 335 335 331 332 332 338 337 335 336
304 305 304 304 305 304 305 305 305 304 304 305 306 308 308 308 309 312 312 314 315 314 315 319 321 325 325 325 329 332 328 332 331 332 334 332 332 333 337 341 345 347 343 342
304 303 303 303 303 303 305 305 305 306 303 304 306 306 308 308 308 308 311 312 315 315 318 321 321 325 325 325 326 330 331 332 330 334 338 336 336 339 340 350 350 348 347 345
303 303 303 304 304 304 304 305 305 305 305 305 305 306 306 307 307 308 309 311 312 315 320 323 325 326 331 332 331 327 331 328 333 335 337 347 341 348 345 343 345 346 346 343
303 304 304 304 304 303 303 305 304 304 305 306 307 308 307 307 307 306 310 309 309 311 315 317 323 327 329 336 336 338 335 334 337 334 335 343 342 340 341 342 344 344 345 344
303 303 303 303 303 302 302 304 305 304 305 307 307 307 308 308 308 309 307 307 309 315 313 315 322 325 325 331 331 333 334 332 337 340 348 343 341 340 340 342 344 345 348 349
302 302 303 302 304 302 303 304 305 304 305 308 307 306 307 308 311 309 309 309 309 317 315 316 322 324 325 328 329 333 330 332 336 348 335 336 343 339 340 341 342 343 345 347
303 302 301 301 302 302 303 306 305 305 305 305 309 307 309 312 313 312 310 310 310 311 315 315 318 321 322 328 331 326 325 326 331 333 332 330 336 333 332 332 334 336 336 337
302 304 303 301 301 302 305 307 304 303 303 305 307 309 312 313 316 311 312 311 311 312 316 317 319 323 323 329 329 324 327 329 332 329 330 330 327 328 326 326 326 325 327 328
303 304 303 303 303 303 304 304 304 303 303 303 307 309 311 315 318 314 314 315 314 315 315 319 321 323 326 326 324 326 325 325 330 330 327 325 325 324 325 325 325 325 326 325
305 306 305 306 306 307 308 306 305 302 304 306 305 310 313 314 318 318 318 320 320 319 320 321 321 323 326 324 326 322 322 323 325 324 325 324 325 327 327 326 323 324 327 325
308 308 310 312 310 308 307 306 306 303 303 301 302 304 312 315 318 319 317 319 322 321 320 319 318 321 320 324 321 320 319 319 322 325 326 327 325 324 325 325 324 323 322 328
311 311 312 310 309 310 311 313 310 308 307 307 307 312 319 316 320 320 320 322 322 320 322 320 317 318 318 321 321 320 318 318 318 318 320 321 324 326 325 327 326 326 321 327
307 307 308 310 313 314 314 314 315 316 319 318 319 320 321 318 318 320 321 322 321 323 323 320 319 316 321 322 323 321 320 319 321 321 322 322 323 323 326 327 326 325 326 327
311 312 315 314 315 320 314 316 317 319 318 318 319 322 320 320 320 322 324 323 326 323 321 317 317 318 320 322 324 325 324 324 325 325 324 325 326 326 326 327 326 326 327 328
314 315 318 319 319 318 314 317 318 319 319 320 321 325 322 323 324 324 326 325 323 322 321 316 315 318 320 323 325 324 325 324 323 323 322 324 325 326 324 325 326 325 327 327
316 317 320 318 319 318 320 319 319 322 322 320 324 321 322 323 325 328 325 324 321 319 317 317 319 319 321 324 326 324 322 323 322 321 321 323 322 322 323 324 323 323 323 323
317 315 317 317 318 318 319 321 318 320 321 321 320 322 324 324 324 323 323 324 324 323 323 322 322 323 324 325 326 325 326 323 323 323 324 322 322 324 323 321 320 320 320 320
313 315 316 317 318 320 318 318 319 320 323 322 322 324 324 322 321 322 321 321 321 320 322 322 322 322 323 323 327 325 325 325 321 321 322 321 318 320 322 325 320 320 320 320

GFSNW_925_thetae_033.txt.gz
Theta_e
305 305 304 304 303 303 305 305 308 307 308 310 313 314 314 313 315 315 316 317 318 319 319 319 320 319 319 326 328 325 324 324 326 326 328 326 325 322 320 323 327 328 327 329
304 304 305 304 304 303 304 305 306 306 307 309 311 312 313 313 313 315 315 316 316 318 319 320 320 321 321 320 321 328 325 325 325 326 325 326 325 325 322 321 320 324 328 330
303 303 303 304 304 303 304 306 307 307 308 309 311 313 315 316 314 313 314 314 316 319 318 320 321 321 321 320 320 337 335 326 325 326 326 328 330 326 325 322 322 321 323 323
304 304 304 304 304 303 303 307 306 306 309 309 308 312 313 313 313 312 313 314 315 317 322 321 322 323 321 321 324 324 321 326 327 325 327 328 327 329 327 325 324 323 322 323
304 304 304 304 304 304 304 306 306 306 306 307 307 308 309 310 311 312 312 313 316 315 318 318 317 316 317 319 320 319 319 329 330 330 328 326 327 328 327 327 326 325 325 326
305 304 304 304 304 304 304 305 305 307 306 306 306 306 308 309 310 311 311 311 314 314 313 313 313 312 313 315 318 320 320 323 331 329 329 330 330 326 327 329 328 327 326 325
305 305 305 304 304 304 303 304 306 306 306 305 306 306 306 309 309 311 310 311 311 312 311 310 312 315 317 319 321 321 322 322 327 330 331 333 331 328 327 329 331 329 327 327
305 305 305 305 305 304 304 305 305 305 307 305 305 305 306 308 308 308 309 310 311 310 312 315 316 318 320 320 322 321 322 323 328 331 330 329 332 330 332 329 329 331 332 328
305 305 305 306 304 304 304 304 305 305 306 306 305 307 307 307 308 310 309 309 310 313 311 318 319 323 323 326 323 321 321 322 328 329 329 330 330 332 330 330 334 342 337 333
304 305 305 305 305 304 304 305 304 304 304 304 304 306 307 307 308 309 308 312 310 312 317 318 318 318 317 324 328 325 324 326 329 331 328 329 332 329 328 333 336 348 344 344
304 305 305 305 305 305 304 305 305 305 303 303 304 305 306 306 307 308 309 310 311 313 319 317 320 319 320 325 326 328 332 332 331 329 334 335 342 334 345 350 347 347 345 344
304 304 304 304 305 305 304 305 304 305 306 306 305 304 305 305 307 307 308 310 310 312 317 318 316 323 325 328 333 326 331 333 338 336 335 343 342 344 342 343 348 345 346 342
303 304 304 304 304 304 304 304 304 304 305 305 305 306 306 306 306 306 307 307 308 312 310 316 315 322 326 329 333 333 332 330 337 338 336 337 335 337 337 341 343 349 351 352
303 304 304 304 304 304 303 303 304 304 305 306 306 305 306 305 305 307 306 307 307 311 313 315 317 319 322 324 325 329 332 331 331 335 334 337 340 331 336 341 349 350 350 351
302 303 304 304 303 302 302 303 304 305 304 306 306 305 306 310 310 308 310 309 308 312 309 316 316 319 323 324 327 328 329 330 332 336 332 336 335 329 329 345 345 343 346 348
305 304 304 304 304 302 303 306 304 305 305 305 306 305 306 312 310 311 311 310 309 310 314 315 315 317 322 327 329 327 325 326 327 332 330 329 329 327 327 329 338 338 339 341
304 305 306 305 304 304 303 306 305 304 303 305 306 306 310 310 315 314 313 310 309 309 317 316 317 320 321 326 329 325 326 325 327 330 330 328 327 327 326 325 326 325 326 325
305 305 305 305 305 304 304 306 305 303 303 304 306 306 311 314 317 315 313 313 313 315 317 318 320 319 322 327 324 325 323 323 328 327 325 325 325 326 326 324 326 327 324 325
306 307 307 307 305 307 307 306 304 303 303 306 306 307 314 312 317 317 317 317 318 317 318 320 318 322 325 322 323 323 323 323 327 324 324 326 327 327 327 326 324 326 327 326
310 309 310 312 310 308 307 304 305 302 301 299 303 305 309 314 316 317 318 318 320 322 320 317 315 319 321 321 321 320 320 320 322 325 326 325 326 326 325 324 323 324 323 327
311 312 313 309 309 309 311 312 308 304 305 303 304 306 309 316 318 321 318 322 316 315 320 317 317 318 321 320 320 319 318 317 318 319 321 323 324 327 327 327 322 324 322 321
307 306 307 310 313 313 314 315 314 314 315 313 313 316 315 316 317 319 320 318 320 324 321 318 316 316 319 318 322 320 319 318 319 319 321 323 324 324 326 326 326 327 327 326
312 310 313 315 313 311 314 317 318 320 320 320 319 320 319 319 317 318 319 321 326 322 317 314 315 317 317 318 320 323 321 321 322 324 324 325 326 326 326 326 326 327 327 327
317 317 316 319 319 312 313 317 320 319 320 320 321 323 321 321 322 324 324 323 320 319 319 318 316 316 317 320 321 323 324 323 323 324 323 325 324 324 325 326 324 324 324 325
320 318 319 320 319 319 319 321 320 320 322 322 324 323 324 325 325 324 323 321 318 318 318 318 320 321 321 322 323 321 322 322 323 322 322 323 324 324 323 321 321 322 321 324
318 317 319 319 320 321 320 321 320 320 320 324 322 324 324 323 322 322 322 321 320 323 322 321 320 321 321 322 323 323 322 322 322 321 320 319 322 324 324 322 320 320 320 321
316 319 319 319 320 321 321 321 320 320 320 321 321 322 323 320 320 321 320 318 320 320 321 320 319 321 321 323 324 322 319 318 319 322 319 318 321 323 323 320 320 318 320 321